Theta_e
301 301 302 302 302 302 301 302 303 301 300 301 303 303 303 303 303 303 302 302 302 301 301 301 300 300 299 297 297 297 297 298 298 298 300 302 302 301 301 302 304 306 307 307 307 308 309 309 310 310 310 311 312 314 315 314 314 314 315 315 315 316 317 318 319 319 319 319 320 321 321 320 320 320 321 319 319 320 320 322 322 327 332 330 328 331 331 332
301 302 302 302 302 302 302 302 302 301 301 301 301 301 302 303 303 303 303 303 303 302 302 301 301 301 300 299 298 297 297 298 297 299 304 305 304 302 301 302 303 305 306 307 308 311 311 310 311 311 310 312 312 313 315 314 314 314 315 314 315 317 318 319 319 320 320 320 320 321 321 320 319 320 321 319 320 320 320 321 321 325 333 332 323 326 331 331
301 302 302 302 302 302 302 302 302 302 302 301 301 301 301 301 303 303 302 303 303 303 303 302 302 301 300 300 299 297 297 298 299 305 309 307 305 304 303 303 304 304 305 307 311 314 313 310 311 311 311 312 312 313 314 315 314 314 315 314 316 318 318 319 320 320 320 319 321 321 320 320 319 320 320 319 320 320 320 320 322 321 329 338 329 328 333 331
301 302 302 302 302 302 302 302 302 302 301 301 302 302 302 302 303 303 302 302 303 303 303 302 302 301 301 300 298 298 298 300 304 309 309 306 306 305 304 305 305 306 306 308 311 313 312 310 310 311 311 312 313 313 314 314 314 314 315 314 316 318 317 318 319 319 319 319 320 320 320 320 319 319 319 320 319 319 321 320 322 321 322 338 335 328 332 331
301 301 301 301 301 301 301 301 301 301 300 301 301 302 302 302 302 302 302 303 303 303 303 303 302 302 302 300 299 299 300 303 308 311 309 306 305 305 305 305 306 306 308 309 310 310 311 310 310 310 312 313 313 312 313 314 314 314 314 315 316 317 317 317 318 317 318 318 318 319 319 319 319 319 319 319 319 318 321 320 319 321 318 334 338 327 329 333
301 301 301 301 301 301 301 301 300 300 300 300 301 301 302 301 301 301 302 303 302 303 303 303 302 302 302 300 300 301 302 303 306 309 309 303 302 306 306 306 306 305 308 311 311 311 311 310 310 311 312 313 312 312 313 313 313 313 314 316 316 316 316 316 316 316 316 317 317 318 318 319 318 318 318 318 319 318 319 320 318 320 318 326 337 328 325 332
301 301 301 300 301 301 301 301 301 301 301 301 301 301 301 301 300 300 300 301 301 302 302 303 303 302 302 301 302 302 303 303 302 303 302 298 300 306 307 306 306 305 307 312 313 312 310 310 311 311 312 312 312 313 313 313 314 313 314 315 316 315 316 315 316 315 315 316 317 317 317 318 317 317 318 317 318 319 317 319 317 319 321 323 334 332 325 328
300 300 300 300 300 300 300 301 301 301 301 302 302 302 302 302 301 300 300 300 300 301 301 302 302 303 302 301 302 303 304 304 302 300 298 297 298 302 306 307 306 305 306 310 311 311 311 311 311 311 312 312 312 313 313 313 313 313 313 314 315 315 315 315 315 315 315 315 316 316 317 317 317 316 317 317 317 318 317 317 317 320 324 324 331 335 328 326
300 301 301 301 300 300 300 300 300 300 301 302 302 302 302 302 301 301 301 301 301 301 301 301 302 302 302 302 302 303 304 302 301 300 299 299 297 299 303 305 306 304 305 308 309 310 311 311 311 312 311 312 312 312 313 312 313 313 313 314 315 315 314 314 314 315 314 315 315 315 316 316 316 316 316 317 316 317 317 316 318 320 324 325 329 336 331 326
301 301 301 301 300 300 301 300 300 301 301 301 301 302 302 302 301 301 301 301 301 301 301 302 302 302 302 302 302 303 302 300 300 300 299 299 298 298 300 301 303 303 304 307 308 309 311 311 311 312 311 312 312 312 313 313 313 313 314 314 315 315 314 314 314 315 315 315 315 315 315 316 316 316 315 317 316 316 317 316 318 319 321 323 327 336 336 329
301 301 301 302 301 300 301 301 301 301 301 301 302 301 301 301 301 301 301 301 301 301 300 301 301 301 302 302 302 303 302 299 300 299 298 298 298 298 298 298 300 300 302 305 307 309 310 311 311 311 310 311 312 312 312 312 312 312 313 314 314 314 314 314 315 314 315 314 315 315 315 316 315 316 316 316 317 316 316 316 317 317 319 322 326 337 339 333
301 301 301 301 300 300 301 301 302 302 302 301 301 301 301 300 300 300 300 300 301 301 300 299 300 302 302 302 303 303 301 299 300 299 299 299 298 298 297 297 298 298 301 304 306 307 309 310 310 311 311 310 311 311 312 312 312 312 313 312 312 313 313 314 315 314 315 314 315 315 313 314 315 315 316 316 318 319 318 317 318 319 319 320 326 338 341 337
301 301 301 300 299 301 302 301 301 301 300 300 300 300 299 298 298 298 298 299 299 299 299 298 300 302 302 302 303 302 301 299 299 299 299 298 298 298 298 298 297 297 299 302 305 306 308 309 309 311 311 311 311 311 311 311 312 311 312 312 312 312 312 313 315 314 315 314 315 314 312 313 315 316 317 316 317 319 320 319 320 321 321 322 329 337 341 341
301 301 301 301 299 300 302 301 300 299 299 299 298 298 298 297 297 297 297 298 297 298 299 298 300 302 302 302 302 301 300 299 298 298 298 298 298 300 301 300 299 299 298 300 303 304 306 308 308 311 311 311 312 311 311 311 311 311 311 311 312 312 312 313 314 314 314 314 315 314 311 313 315 316 317 317 316 317 318 319 319 320 321 323 329 336 340 344
301 301 301 301 299 299 301 301 300 300 299 299 298 298 298 297 296 297 297 297 297 298 297 298 301 302 302 302 302 301 300 299 298 299 299 301 301 302 302 302 302 301 299 298 302 304 305 307 308 311 311 311 311 311 311 311 311 311 311 311 311 311 312 314 314 313 314 314 316 314 311 313 315 317 317 317 317 317 317 319 319 319 320 321 326 334 338 344
301 300 300 301 300 300 301 301 300 300 299 299 298 298 297 297 296 297 297 297 297 297 298 300 301 301 301 302 301 300 299 300 301 300 301 302 302 302 302 302 303 303 301 299 302 304 306 308 309 310 311 310 310 310 311 311 311 311 311 311 311 311 311 313 313 314 314 313 315 314 312 314 315 317 317 317 317 317 317 318 320 319 321 321 324 335 340 344
301 300 300 300 300 300 300 300 300 300 299 298 298 298 297 297 297 297 298 298 297 298 300 301 301 301 301 301 300 300 300 301 301 300 301 302 302 301 301 302 303 304 302 301 302 305 307 308 309 309 310 310 310 310 311 311 312 311 311 311 311 311 311 312 313 314 314 312 313 313 313 314 315 317 318 317 317 317 317 318 319 320 322 323 325 336 342 344
300 300 300 300 300 300 300 300 300 300 299 299 298 298 297 297 298 298 299 299 299 300 301 301 300 301 302 302 301 302 301 300 300 300 301 301 301 301 301 302 303 304 303 302 303 305 307 309 309 309 309 310 310 310 311 311 312 312 311 311 311 311 311 312 312 313 313 312 313 313 313 313 314 316 317 318 317 317 318 318 319 321 323 325 330 338 342 344
300 300 300 299 299 299 299 300 300 300 300 299 298 298 298 300 301 301 300 300 301 302 303 302 301 302 302 302 301 301 300 299 299 299 300 301 301 301 302 302 303 305 304 303 304 306 308 309 309 309 309 310 310 310 311 312 312 312 312 311 311 311 312 312 313 313 313 313 313 313 313 314 314 315 316 317 317 317 318 318 320 323 324 326 333 339 340 343
299 299 299 299 300 299 299 300 300 300 300 299 300 300 301 302 303 303 302 301 302 302 302 302 302 301 301 301 300 300 300 300 300 300 300 301 301 302 303 303 304 305 304 303 304 307 309 309 309 309 309 309 310 310 311 312 311 312 313 312 311 311 311 312 313 313 313 313 313 313 313 314 314 314 315 317 317 317 318 319 319 322 324 326 333 337 337 340
298 298 299 300 300 300 300 300 300 300 300 300 301 301 302 302 301 302 302 301 301 302 301 302 302 301 301 301 301 301 301 301 301 301 301 301 301 302 303 303 303 304 304 304 306 308 309 309 310 310 310 310 310 310 311 311 311 312 313 312 311 311 311 313 313 313 313 312 313 314 313 314 314 315 316 316 316 317 318 319 321 322 324 326 332 335 334 339
299 298 299 300 300 300 300 300 300 300 300 301 301 301 301 301 300 300 300 301 302 302 302 302 302 301 301 301 301 300 301 301 301 301 301 301 301 302 303 303 303 303 304 304 306 308 308 309 310 310 310 310 310 310 311 311 310 311 312 311 311 311 312 312 313 313 313 312 313 314 313 313 315 315 316 316 316 317 317 318 320 322 324 326 331 334 333 338
299 299 300 300 300 300 300 300 300 300 301 301 301 301 300 300 300 300 300 300 301 302 302 302 302 302 301 301 301 301 301 302 301 301 301 301 301 302 303 303 303 304 304 304 305 308 308 308 310 310 310 310 310 310 310 310 310 311 311 311 311 311 311 311 312 313 312 312 312 313 313 314 315 315 315 316 317 317 317 316 318 320 322 326 329 332 334 338
299 299 300 300 300 300 300 301 301 301 301 301 301 301 300 300 300 300 300 300 301 302 302 302 301 302 302 301 301 301 302 302 302 301 301 301 301 301 302 303 303 303 304 304 305 307 308 309 310 310 310 310 310 309 310 310 310 310 311 311 311 311 312 311 312 312 312 312 312 312 312 313 314 315 315 316 317 316 317 317 317 319 321 324 326 330 333 339
299 299 300 300 300 300 300 301 302 302 301 301 301 301 300 300 300 300 300 301 302 303 302 301 301 301 301 301 301 301 302 302 302 302 302 301 301 301 301 303 304 303 304 304 304 306 308 310 311 310 309 309 309 309 309 309 310 310 311 311 312 312 312 312 312 312 311 311 312 312 311 312 314 314 315 316 316 316 317 319 320 321 321 324 325 326 331 339
300 300 300 300 300 300 301 302 302 302 301 302 301 300 300 300 300 300 300 301 303 303 301 301 302 301 301 301 301 302 302 302 302 302 302 302 302 302 301 302 304 304 304 304 304 305 307 309 310 309 309 309 309 309 309 309 310 310 311 311 312 312 311 311 312 312 311 311 313 312 311 311 313 314 315 316 316 316 317 319 320 321 323 324 325 326 331 340
300 301 301 300 300 300 301 302 302 301 302 302 301 300 300 300 299 299 301 302 304 303 302 302 302 302 302 302 302 302 302 302 302 302 302 302 302 302 301 302 303 304 305 305 304 304 307 308 308 309 309 309 309 310 309 309 309 311 311 311 311 311 311 312 311 311 311 312 313 313 311 311 312 314 317 316 316 317 317 319 320 320 322 324 325 328 333 339
301 301 301 301 301 301 301 301 301 302 302 302 301 300 300 300 299 300 302 304 305 303 303 304 303 302 302 302 302 302 302 302 302 302 302 302 302 303 302 303 303 304 305 305 304 305 306 308 308 308 309 309 309 310 310 309 310 311 311 311 310 311 311 312 311 311 311 312 312 312 312 311 311 315 319 317 316 317 318 320 320 320 322 324 327 330 334 338
302 301 302 302 302 302 301 301 301 302 302 301 301 300 300 299 300 301 301 304 306 304 304 304 304 303 302 303 303 303 303 303 303 303 302 301 303 303 303 304 305 304 305 305 304 305 307 308 309 308 309 310 310 310 310 309 310 311 311 311 310 311 311 312 311 311 311 312 312 312 312 311 311 314 318 318 317 316 318 321 321 321 323 324 328 331 334 339
302 302 302 302 302 302 302 301 301 302 302 301 301 300 300 300 300 302 303 304 304 305 305 305 305 304 304 303 304 304 303 303 304 304 303 302 303 304 304 305 305 304 304 305 305 306 307 308 308 308 310 311 310 311 310 310 310 310 310 310 310 311 311 312 312 311 312 313 313 312 311 311 311 312 316 319 318 316 319 322 321 322 324 325 328 330 333 338
302 302 302 302 303 302 302 302 302 301 302 301 301 300 300 301 301 303 306 305 303 304 305 304 305 305 304 303 304 304 304 304 305 304 303 302 302 303 304 304 305 305 304 305 305 306 307 307 308 308 310 311 310 311 310 310 310 310 310 310 311 311 311 312 312 312 313 314 313 311 312 312 311 312 315 319 320 318 319 321 320 322 323 325 328 330 333 338
302 303 303 302 303 302 302 303 302 302 302 301 301 301 301 302 303 304 305 305 304 305 304 304 305 305 304 304 304 305 304 304 305 304 303 302 302 303 303 303 304 305 305 304 305 305 306 307 307 308 310 310 310 310 310 310 309 309 310 310 311 312 312 313 313 313 313 313 312 312 312 312 311 313 316 318 319 319 319 320 320 322 323 325 329 331 334 337
303 303 303 302 303 303 303 302 302 302 302 301 301 301 302 303 305 305 305 305 305 304 304 305 304 304 304 304 305 305 304 304 304 304 303 302 302 303 303 303 304 305 305 305 305 305 306 307 307 308 309 310 310 310 310 309 309 310 309 310 312 312 313 313 313 313 313 312 312 312 312 312 312 313 316 317 318 320 320 319 320 321 322 325 329 332 334 338
303 303 302 303 303 303 303 302 302 302 302 302 302 302 303 305 306 306 305 305 305 304 304 305 304 304 305 305 305 305 304 304 303 303 303 302 303 303 303 304 304 304 305 306 306 306 307 308 307 307 308 309 310 310 311 310 309 310 309 310 311 312 313 313 313 313 313 312 312 312 313 312 311 314 317 317 317 320 320 319 321 321 321 323 326 330 333 338
303 303 303 303 303 303 303 303 302 302 302 302 302 302 304 306 306 305 305 305 305 304 304 304 304 305 305 304 305 304 305 305 304 303 303 302 303 303 303 304 304 305 305 306 306 306 307 308 307 308 309 309 310 311 311 311 310 310 310 310 311 312 313 312 313 313 313 313 313 312 312 313 314 316 318 317 317 317 319 320 323 325 324 326 329 331 334 337
303 303 303 304 304 303 303 303 303 302 302 302 302 303 304 305 304 304 304 304 304 304 304 304 305 305 305 304 305 304 304 304 304 303 303 302 303 304 303 304 305 305 305 306 306 306 307 308 307 308 309 309 310 311 311 311 311 311 310 310 311 312 312 311 313 313 312 313 314 312 312 313 314 316 316 317 317 317 318 320 322 324 324 328 331 333 336 337
303 303 304 304 303 303 303 303 303 302 302 302 303 304 304 304 304 303 304 304 304 304 304 305 306 306 306 305 305 304 303 304 304 303 303 303 303 303 303 304 305 305 306 306 307 307 308 308 308 307 308 309 311 312 311 312 312 311 310 311 311 311 312 312 312 312 312 313 314 313 313 312 311 314 317 318 317 317 318 318 321 322 324 326 328 331 334 337
303 303 304 304 303 303 303 303 303 302 302 302 303 304 304 304 304 304 304 304 304 304 305 305 306 306 306 305 305 304 303 304 304 303 304 303 303 304 304 304 305 305 306 307 307 307 308 308 308 308 308 309 310 311 311 311 312 312 311 312 312 311 311 312 312 312 312 312 313 313 313 312 310 314 318 318 318 318 318 318 319 322 325 327 327 330 334 337
302 304 306 304 302 303 303 303 303 302 302 303 304 305 304 304 304 304 305 305 305 305 305 306 306 306 306 306 306 305 304 304 304 303 304 303 304 304 304 305 305 305 306 307 307 307 308 309 308 308 309 309 309 310 310 311 311 312 312 311 311 311 312 312 313 313 312 311 312 312 313 312 312 315 318 319 320 320 320 321 322 323 326 328 328 333 338 339
303 306 307 303 301 303 303 303 303 303 303 304 304 304 304 304 304 305 305 305 306 306 306 306 307 307 307 306 306 305 305 304 304 304 304 304 305 304 304 305 305 305 306 307 307 307 308 309 309 308 309 309 309 310 310 311 311 311 311 310 311 311 312 312 312 312 312 311 311 312 313 313 314 316 317 318 320 321 322 325 326 326 326 326 329 336 339 339
303 306 306 303 301 303 303 303 304 303 304 304 304 304 304 304 304 305 306 306 306 307 306 306 307 307 307 307 306 306 306 305 305 305 305 305 305 304 304 306 306 306 307 306 307 308 308 310 310 309 309 309 309 310 310 312 311 311 311 311 311 311 311 313 312 312 312 311 312 312 312 313 319 321 318 317 319 320 323 324 325 329 330 331 335 338 339 339
304 306 306 302 301 303 304 304 305 304 304 304 304 304 304 305 304 305 306 307 307 307 307 307 307 307 307 307 306 306 307 306 305 306 306 305 305 305 305 307 307 307 307 306 307 308 309 310 310 309 309 309 310 310 311 312 312 311 311 311 311 311 311 312 313 312 311 311 313 313 311 315 325 328 324 325 325 325 326 326 328 333 336 338 339 339 339 338
305 305 304 302 301 302 304 304 305 305 304 305 305 305 305 306 305 306 306 307 307 307 308 308 308 307 306 306 306 307 308 307 305 306 307 305 305 306 306 307 308 307 307 307 307 308 309 310 310 309 309 309 310 310 310 311 312 311 312 312 311 311 312 312 312 313 312 311 313 312 311 316 327 331 329 330 329 329 331 332 334 337 338 338 338 338 337 337
304 304 304 303 301 302 304 304 304 304 304 305 305 305 306 306 306 306 306 306 307 307 307 308 308 308 306 306 307 308 308 308 306 305 308 307 306 307 307 307 308 307 307 308 308 309 309 310 310 310 309 309 310 310 310 311 311 312 312 312 311 311 312 313 313 314 313 312 312 312 311 316 327 333 332 331 329 328 332 334 336 338 338 337 337 336 336 336
304 304 304 304 303 303 305 304 303 303 303 304 304 305 306 307 307 307 306 306 308 307 306 307 308 308 307 307 307 308 308 308 307 306 307 307 307 307 308 307 308 307 308 309 309 309 309 310 310 310 309 309 309 310 310 310 311 312 312 312 312 312 311 312 313 313 313 313 313 313 312 317 327 332 332 333 332 332 335 336 336 337 336 336 336 335 335 335
304 304 304 303 303 304 305 304 303 303 303 303 304 305 306 306 306 307 306 306 307 307 307 308 309 309 309 309 309 309 308 308 308 308 308 308 307 308 309 308 308 308 308 308 310 310 310 310 311 311 310 311 310 311 310 310 311 311 312 312 312 312 312 313 312 312 313 314 313 314 315 317 322 324 327 333 336 335 336 336 336 336 335 335 335 335 334 334
303 303 301 301 302 304 305 305 304 303 303 303 304 305 306 306 306 306 306 306 306 305 306 308 309 309 309 310 310 311 310 309 309 309 309 309 309 311 311 309 307 308 309 309 310 312 311 311 311 312 312 311 311 311 310 310 310 310 311 311 311 312 312 313 312 312 314 313 313 317 319 317 318 320 324 332 336 335 335 335 336 336 334 334 335 335 335 335
302 302 300 299 301 303 303 303 303 302 302 304 304 305 305 305 305 305 305 305 305 305 306 309 309 308 308 309 310 311 312 311 310 309 309 311 312 312 310 308 307 308 308 309 310 312 312 312 312 312 312 311 311 310 310 310 310 310 310 311 311 311 312 313 313 314 315 315 315 320 322 318 318 321 326 332 335 334 334 334 335 334 334 334 334 334 335 335
299 300 300 299 299 301 301 301 302 303 304 305 305 305 305 304 305 305 304 304 304 305 306 308 308 307 307 308 309 312 312 311 311 310 310 312 313 311 308 307 307 308 308 309 311 312 312 312 312 312 312 312 312 310 310 310 310 310 311 311 311 311 312 313 313 314 316 316 317 320 320 319 322 325 329 333 334 334 334 334 334 334 334 334 334 335 335 335
298 298 299 298 299 300 301 302 303 304 305 305 305 305 304 304 304 304 304 304 304 305 306 307 307 306 306 307 309 311 311 310 310 310 311 312 313 312 310 309 309 308 307 310 312 312 312 311 312 313 313 313 313 311 310 311 310 310 310 310 311 311 312 312 313 315 316 316 317 319 317 318 325 329 331 333 333 333 334 334 334 334 334 334 334 335 335 335
296 297 297 297 299 301 302 303 304 304 305 305 305 304 303 303 304 304 303 304 305 304 305 306 305 305 306 307 309 311 310 309 308 309 310 311 313 313 312 313 313 310 308 309 311 312 312 311 313 313 313 313 312 311 311 311 311 311 311 311 311 311 312 312 313 315 316 316 317 316 314 319 327 330 331 333 333 333 334 335 335 335 334 334 334 334 336 335
295 296 297 297 299 301 302 303 304 305 305 305 304 303 303 302 303 304 304 305 305 304 304 305 304 305 307 308 310 310 309 308 308 310 310 311 312 312 312 313 314 313 310 309 310 312 312 312 312 313 313 313 312 311 311 312 312 312 312 313 313 312 312 313 313 314 316 317 316 314 316 324 330 330 331 333 332 332 334 335 335 335 335 335 334 335 335 335
Wind_Speed
13 13 13 14 14 13 12 12 13 12 10 9 11 12 13 14 14 14 14 14 14 14 15 16 17 18 18 20 20 19 21 21 20 19 16 17 16 14 16 18 18 17 16 17 17 16 13 12 11 11 11 11 14 15 16 16 16 14 10 12 14 14 15 15 16 15 13 14 16 14 13 12 13 14 14 10 12 15 13 12 11 10 10 13 15 12 14 13
12 13 13 13 14 14 14 13 13 13 12 11 11 12 12 13 14 14 15 15 15 15 16 16 17 18 19 21 20 20 21 20 22 19 12 16 14 12 16 16 17 17 16 16 15 14 12 11 11 11 13 13 14 15 16 17 18 15 9 11 14 14 16 18 20 19 17 17 18 19 17 13 13 15 14 12 13 15 13 13 13 13 12 14 17 14 14 14
11 12 12 12 13 13 14 14 14 14 13 13 13 13 13 13 13 14 15 15 15 15 16 17 17 18 20 21 22 20 20 23 21 8 6 12 9 8 10 11 14 16 15 15 14 14 14 11 11 13 15 15 14 16 16 17 18 18 14 11 14 16 17 21 24 22 21 20 20 22 21 16 15 16 16 13 15 16 14 13 13 15 14 12 14 14 14 13
11 11 12 12 12 12 13 13 14 14 14 14 13 14 14 14 14 14 14 14 15 16 16 17 17 19 19 22 23 20 20 21 10 5 3 7 6 7 6 6 10 12 12 14 15 15 15 12 11 14 15 15 16 17 16 17 16 15 16 13 14 15 17 21 22 21 20 19 20 23 23 19 15 16 17 15 14 14 15 16 15 15 13 12 13 14 14 13
13 13 13 13 13 13 14 14 14 15 15 14 14 14 14 15 14 15 15 14 15 15 16 17 17 18 19 22 23 19 17 11 2 6 3 7 8 9 7 6 7 8 9 11 15 14 15 15 13 15 16 14 15 15 16 21 17 12 17 18 18 16 14 16 17 17 18 17 20 23 23 19 14 16 18 18 15 12 14 16 16 16 12 9 12 14 14 14
14 14 14 14 14 14 15 15 14 14 14 14 14 13 14 14 14 15 15 15 15 15 16 16 17 18 19 22 20 15 10 6 2 1 11 12 12 11 10 8 6 8 8 8 10 11 15 17 16 17 16 13 15 15 15 22 19 12 14 19 21 18 13 13 15 16 18 19 20 21 23 20 15 15 17 20 19 17 17 14 10 9 9 8 10 13 14 15
14 13 14 13 13 14 14 15 14 14 14 14 14 14 14 14 13 14 14 16 16 16 16 15 16 16 19 19 15 11 10 13 12 13 17 15 11 11 12 10 7 9 7 6 8 12 15 19 21 20 16 13 15 17 17 20 21 16 13 16 19 17 16 14 13 14 17 21 22 21 22 18 15 14 14 18 20 19 17 11 7 6 8 10 11 13 15 15
14 14 15 14 14 14 15 15 15 15 15 15 16 16 16 16 16 15 15 16 16 16 15 15 15 15 18 15 11 11 14 17 16 15 16 15 14 13 13 12 11 9 6 6 8 11 15 20 23 20 14 14 15 16 17 16 18 19 15 14 14 15 17 16 13 15 17 19 20 21 20 17 17 16 14 17 16 17 16 10 10 10 10 11 12 15 15 16
15 16 16 17 17 16 17 17 17 16 16 16 16 17 17 18 18 17 17 18 17 17 15 15 14 14 15 11 11 13 14 14 12 11 14 16 16 14 14 14 16 11 7 7 8 10 14 18 23 21 14 14 14 15 17 15 13 16 19 15 11 13 16 17 16 16 17 17 18 20 20 20 19 14 14 18 16 14 15 13 13 13 14 14 13 15 16 17
16 16 17 18 19 18 18 18 18 17 17 17 17 17 18 18 18 18 19 19 19 19 17 15 13 13 12 10 12 10 10 14 12 12 15 14 11 9 11 15 18 14 9 8 8 11 14 14 16 17 12 12 13 13 17 16 8 9 18 19 12 12 16 18 19 17 16 16 18 18 18 21 21 15 12 17 18 17 16 16 17 16 16 17 15 16 16 17
16 17 17 18 20 19 19 19 19 18 18 18 18 19 19 19 19 19 19 20 21 21 19 15 12 12 11 12 15 12 11 16 13 9 11 13 12 12 14 15 17 16 11 10 10 11 13 11 8 10 9 9 12 13 16 17 8 6 13 17 15 14 15 16 17 19 17 14 17 17 16 19 20 17 14 13 13 18 22 20 20 20 19 18 17 16 16 18
17 18 18 19 20 19 19 20 19 19 19 19 19 19 19 19 19 19 20 21 22 21 20 17 12 10 11 17 24 22 19 20 17 16 15 18 22 23 21 17 17 17 14 12 11 10 12 10 7 11 8 6 11 11 12 15 11 8 10 12 14 15 15 17 16 18 18 14 16 14 13 18 19 19 19 17 13 14 18 19 18 20 21 21 18 16 16 18
17 19 20 21 20 18 20 20 19 20 20 19 19 18 19 19 18 18 19 21 22 21 20 17 12 10 13 20 24 24 24 22 22 25 23 22 25 24 20 18 18 19 17 15 12 9 10 9 10 15 9 6 11 5 3 13 13 9 11 10 11 12 14 19 18 17 18 16 16 13 11 15 18 22 24 22 21 17 16 16 17 17 18 20 19 17 16 17
18 19 20 21 20 18 20 21 21 21 20 20 19 17 17 17 17 17 18 20 20 19 18 16 12 9 16 24 22 22 24 20 20 23 18 15 18 15 11 13 15 16 18 19 14 9 9 9 11 13 10 10 8 2 4 11 12 10 10 10 10 9 10 18 21 19 17 15 19 16 12 13 12 19 25 25 26 24 20 20 20 20 19 19 19 18 17 17
19 19 20 21 21 20 20 22 22 22 21 20 18 17 17 16 16 17 17 17 16 16 16 14 10 9 17 24 20 19 19 14 13 12 9 10 11 9 7 7 10 11 15 19 15 11 9 9 12 14 13 12 7 5 9 8 9 11 10 10 11 10 9 14 21 22 19 15 20 18 11 11 12 12 17 23 26 26 23 21 22 22 21 21 19 18 16 15
19 20 20 20 21 21 21 22 22 22 22 21 19 17 16 16 17 17 15 15 15 15 13 10 9 12 14 15 13 13 11 6 5 3 5 8 8 7 6 7 8 8 12 17 14 11 10 11 15 16 15 13 9 9 10 7 9 11 12 11 12 13 10 10 15 21 22 17 19 20 11 8 11 12 14 19 22 24 23 22 22 22 22 22 20 17 15 13
19 20 20 20 21 21 22 22 22 23 22 21 20 17 16 16 16 15 13 13 15 12 8 7 8 13 14 12 11 9 4 4 4 2 4 6 6 9 9 8 8 8 10 14 14 13 12 13 14 14 14 12 10 11 10 12 12 10 12 12 12 16 13 10 12 17 22 19 17 19 15 12 10 11 15 18 20 22 22 23 23 22 21 21 20 16 14 13
19 20 20 20 21 21 22 22 22 23 22 21 20 18 18 16 13 13 12 10 9 6 6 7 7 8 11 12 10 6 4 4 4 4 6 6 9 12 11 9 7 9 12 13 15 17 15 15 13 10 11 11 12 13 13 14 14 13 13 11 11 14 15 13 11 14 20 20 19 18 17 19 18 12 13 16 19 21 21 22 22 22 21 20 18 15 13 13
20 20 20 21 20 21 22 21 21 22 21 20 19 19 17 13 11 8 5 4 5 5 5 7 12 9 10 9 9 6 6 7 9 10 11 11 11 11 11 10 9 11 14 12 16 21 16 13 13 11 11 15 17 18 17 12 11 15 15 13 12 11 13 15 11 14 19 19 19 19 17 19 22 19 15 14 16 19 21 22 20 20 20 18 17 14 13 13
20 19 20 20 20 22 22 21 22 20 20 20 19 18 13 10 8 4 3 8 14 16 15 15 16 19 21 18 13 9 9 11 11 11 11 11 11 11 11 10 11 13 14 12 14 21 19 12 14 15 15 19 21 20 20 11 7 14 15 14 14 11 11 15 13 13 16 15 16 19 18 18 20 20 20 19 16 15 17 20 21 21 20 18 17 15 14 14
21 18 18 20 21 22 21 22 22 19 18 16 14 12 10 10 8 7 11 14 18 20 23 24 22 24 25 21 17 12 10 11 10 9 10 10 10 12 12 13 13 10 13 15 14 18 19 14 17 19 16 18 20 20 20 14 10 13 13 12 13 12 11 13 15 14 14 13 13 16 19 19 19 18 19 22 19 16 17 18 19 22 21 19 17 16 15 14
21 18 18 20 21 21 22 22 21 19 15 10 8 9 10 10 7 8 13 15 18 19 23 25 23 24 24 21 18 14 12 12 12 11 10 10 12 13 12 13 13 9 12 16 13 14 15 16 20 20 15 15 17 20 21 16 13 11 10 11 11 11 10 10 14 15 13 9 10 14 16 16 18 19 18 19 19 19 21 21 20 20 21 20 18 17 16 15
21 20 20 20 21 22 22 21 21 17 10 5 7 10 10 8 6 7 10 14 20 19 17 19 18 19 19 15 12 11 13 13 11 12 13 14 16 17 14 12 13 12 13 15 15 14 14 15 19 20 16 16 16 20 22 16 11 11 9 10 10 11 12 9 11 15 12 9 10 12 12 12 14 17 17 18 20 20 22 25 23 22 21 20 19 17 17 18
20 20 20 20 21 22 22 22 19 10 5 6 10 10 7 6 5 8 11 12 14 13 10 11 11 12 12 8 7 10 12 10 9 9 13 19 19 18 16 13 13 13 13 17 20 18 15 13 18 20 18 18 17 17 20 15 10 13 13 11 10 12 14 9 9 14 12 11 12 11 9 10 13 16 15 15 19 20 20 22 23 24 22 20 19 18 17 18
20 20 20 20 20 21 23 20 12 4 6 10 10 6 4 4 5 7 9 9 9 6 5 7 7 6 6 5 6 8 8 9 11 9 13 19 19 15 14 15 12 11 15 19 19 17 16 13 15 20 19 19 18 16 19 16 10 12 14 14 12 12 15 11 9 12 9 10 13 12 9 8 12 17 15 13 15 17 16 17 20 22 23 21 21 20 18 18
21 21 21 21 20 21 21 13 6 7 11 9 5 3 3 4 6 6 5 6 5 2 4 4 5 4 4 5 6 6 6 7 8 9 12 17 18 16 13 12 10 11 14 16 13 10 13 13 13 18 20 20 18 15 18 18 11 10 13 14 12 11 14 14 11 10 7 7 11 15 11 7 9 15 17 16 15 17 17 15 18 21 22 23 22 21 19 18
22 22 22 21 20 19 16 12 11 11 10 6 3 2 3 4 6 5 4 5 3 1 2 2 4 4 3 4 7 6 3 0 2 8 14 15 17 17 12 10 11 10 9 10 9 9 13 16 15 17 19 18 16 13 17 20 13 8 13 15 12 11 14 15 13 10 8 6 8 14 13 8 7 10 14 18 17 17 18 16 17 21 23 24 23 22 20 19
23 23 22 21 20 18 14 15 14 10 7 6 3 3 3 4 6 4 4 5 1 1 1 1 3 5 4 4 8 10 7 5 3 5 10 14 16 16 13 12 12 10 10 11 10 10 15 18 17 19 18 15 14 12 15 20 14 8 14 17 13 11 11 12 10 9 9 8 7 12 13 10 8 6 8 15 18 17 18 18 17 20 24 25 24 22 20 19
24 24 23 22 20 16 12 10 9 6 5 4 2 3 4 5 5 3 4 4 1 1 1 1 3 4 5 5 10 14 12 9 6 3 7 13 16 12 11 12 12 11 13 13 11 9 13 17 17 17 16 13 15 14 15 19 14 7 13 16 13 11 9 8 8 8 8 9 9 13 15 10 8 8 8 10 15 16 15 15 17 20 24 25 23 22 20 19
25 25 22 19 15 11 7 5 5 5 4 3 2 2 5 4 3 3 4 2 2 2 1 1 3 3 4 6 8 10 12 11 9 6 7 12 15 12 9 10 11 10 11 12 12 7 10 17 16 14 14 13 15 16 15 18 14 9 13 14 12 10 8 7 7 7 7 9 11 15 17 12 8 9 10 9 11 14 13 13 15 19 23 24 22 22 22 20
25 23 17 12 8 6 4 3 3 3 4 4 2 2 5 4 3 4 3 1 2 2 1 2 5 4 6 7 7 5 8 9 10 10 8 10 13 12 9 8 8 8 8 9 11 8 10 15 13 13 17 15 15 15 15 18 15 10 12 12 10 9 7 6 7 7 8 9 11 15 16 14 11 8 8 9 12 14 13 14 16 18 22 25 24 23 23 21
22 16 11 7 6 5 4 2 3 2 2 3 2 3 5 4 3 4 3 2 2 1 1 4 7 7 9 10 8 7 7 7 9 11 10 9 10 10 10 9 8 8 7 8 11 9 8 12 14 15 18 16 13 13 13 15 14 11 12 12 11 9 7 8 9 9 9 8 7 12 14 11 10 8 6 6 11 15 14 13 17 19 21 23 24 23 22 22
16 10 7 6 6 7 5 3 3 2 1 1 3 5 5 4 3 3 4 3 1 1 3 8 11 12 12 10 7 7 7 5 9 11 11 11 10 10 12 12 11 9 7 9 11 9 7 11 16 16 15 17 15 13 12 13 14 14 13 13 12 10 9 10 10 9 9 7 5 9 11 9 8 9 10 8 7 11 14 14 17 21 23 23 23 24 23 21
10 5 6 5 6 7 5 4 3 2 2 2 4 5 4 5 5 5 6 6 4 5 7 10 13 15 11 6 3 4 5 4 9 11 10 11 9 9 11 12 14 10 6 9 10 10 9 9 14 16 13 17 19 14 13 13 13 13 13 12 11 9 8 8 9 8 9 8 8 9 8 8 6 4 8 12 9 9 13 14 13 16 21 22 23 24 22 21
6 3 6 5 6 7 6 5 4 3 2 3 5 4 4 4 4 5 6 6 7 6 9 13 13 11 7 2 3 3 1 2 9 10 9 10 9 9 10 10 13 10 6 9 8 10 11 8 13 17 14 19 20 15 15 14 11 11 11 11 11 9 6 4 2 2 5 7 8 8 6 4 3 3 4 9 12 12 13 13 12 11 14 17 19 21 21 20
4 1 4 6 6 7 7 8 6 4 3 5 5 3 4 5 4 5 5 5 9 9 10 14 9 5 4 1 3 4 2 1 9 9 7 9 9 9 10 8 12 12 8 9 7 9 10 7 15 18 15 20 21 16 17 15 10 9 10 12 11 8 6 4 1 3 2 6 6 8 8 5 2 3 7 10 12 14 13 12 13 13 13 14 15 18 19 20
3 5 3 7 8 7 7 7 4 3 4 5 5 4 5 5 3 4 5 8 14 12 8 7 3 2 5 3 2 5 3 4 9 7 6 8 8 10 12 10 12 13 10 8 6 9 9 6 14 19 15 19 23 19 17 16 11 9 9 11 9 4 4 5 5 4 5 7 5 7 9 9 6 4 8 12 12 14 15 14 14 14 15 15 15 17 18 19
6 4 3 5 8 8 6 4 2 3 4 5 6 6 5 4 4 6 10 13 14 7 4 5 1 1 4 4 1 4 5 4 7 6 5 7 6 11 13 10 12 15 13 9 5 8 10 6 11 17 15 17 21 17 14 16 17 11 8 9 7 5 5 6 5 6 8 7 5 7 9 9 8 6 7 11 13 14 16 17 16 15 15 16 17 17 18 19
7 3 2 4 9 8 6 3 2 4 5 4 5 6 5 8 10 12 15 15 10 4 5 5 2 1 2 3 3 2 5 5 6 7 6 5 6 12 14 9 11 16 14 10 6 8 9 5 9 15 15 15 16 13 12 14 15 12 9 9 8 6 6 7 5 4 7 7 6 7 7 6 8 8 7 9 12 14 16 15 15 16 17 18 17 16 18 19
6 3 1 6 11 8 6 4 4 5 4 4 7 7 7 10 11 15 17 14 7 5 4 5 4 3 2 2 5 2 3 5 6 6 6 6 6 10 14 11 11 15 15 11 8 7 8 5 7 13 15 14 13 12 14 15 14 11 10 10 9 7 5 7 6 5 5 6 6 6 6 5 6 8 9 10 10 11 14 14 13 14 18 19 16 15 18 19
6 4 1 9 12 6 5 5 5 4 4 5 7 7 9 11 10 16 18 13 7 7 7 8 6 4 2 2 3 3 3 5 6 5 4 7 7 7 13 15 13 13 14 11 8 7 6 6 8 12 13 12 12 13 16 17 15 11 9 9 10 8 7 7 7 7 5 4 4 5 5 3 3 3 7 10 9 9 12 14 13 12 14 14 14 15 18 19
8 5 2 10 13 5 4 5 3 3 4 6 9 10 12 11 8 11 14 11 8 7 7 7 6 4 4 3 2 3 4 4 5 5 4 6 7 6 13 20 17 14 12 9 9 8 3 3 9 11 10 10 12 15 16 17 16 12 9 9 10 9 8 7 6 7 6 3 1 2 3 2 4 2 1 3 3 4 7 10 9 10 12 13 13 15 18 19
8 7 5 10 12 5 4 4 4 4 4 8 13 12 11 8 7 9 12 11 9 6 4 4 3 1 2 3 2 4 5 3 5 5 3 4 7 7 15 22 19 15 11 7 9 9 3 4 9 10 9 9 10 13 14 15 15 13 11 10 11 10 10 8 5 5 6 6 4 3 4 2 4 2 0 2 3 3 4 5 7 10 12 13 14 16 17 18
10 7 5 8 9 4 3 4 5 6 7 10 13 12 10 8 7 10 11 11 9 5 5 6 3 1 2 4 4 3 4 3 5 5 1 1 5 6 13 22 19 13 10 7 8 8 4 5 10 10 9 8 8 11 12 13 14 12 10 12 13 13 12 8 5 3 5 7 6 4 4 5 4 3 4 3 4 5 5 6 8 10 12 14 15 16 17 18
11 6 3 7 6 4 5 5 5 7 9 11 13 12 11 9 10 11 11 12 9 6 6 7 7 5 3 4 4 3 5 4 2 4 3 2 5 5 9 19 19 12 10 8 6 6 5 5 8 10 10 10 10 12 12 13 12 10 12 15 15 17 16 9 5 5 6 6 5 6 3 7 7 6 6 5 5 6 6 8 9 10 12 14 15 16 17 18
9 4 5 9 6 4 6 5 5 7 8 10 10 11 11 11 12 13 10 7 7 10 10 8 8 8 5 4 3 1 1 3 2 1 3 4 5 4 5 14 19 14 11 9 7 5 4 5 8 9 9 10 10 10 11 13 13 12 15 18 17 17 17 11 7 7 6 4 6 7 3 2 4 5 7 5 5 5 7 8 10 11 13 14 15 17 18 19
7 3 4 8 6 5 6 6 8 9 10 10 8 8 12 14 13 11 7 3 7 13 11 6 6 7 8 8 6 1 1 2 1 3 5 5 5 4 4 10 16 16 13 11 9 6 3 5 7 7 9 9 8 8 10 13 15 14 16 17 16 17 17 14 10 8 7 6 5 1 3 4 3 5 6 5 5 5 6 8 10 12 14 15 16 19 20 21
6 3 3 5 4 5 7 10 13 13 13 12 7 6 12 15 14 11 7 4 8 11 7 4 7 9 9 10 8 4 1 3 3 1 4 4 3 5 7 9 13 17 15 11 8 4 3 5 6 6 8 8 6 9 12 14 15 15 15 16 16 17 18 16 12 9 8 6 2 6 7 6 5 7 7 5 4 3 6 8 10 12 15 16 18 20 21 22
6 3 3 4 6 9 12 15 17 16 13 10 6 7 11 15 15 12 7 4 6 7 5 6 10 12 12 11 8 6 4 1 2 1 3 2 1 5 9 9 11 16 14 9 7 4 3 3 4 4 7 7 7 10 15 17 16 15 16 17 17 17 17 16 14 12 12 11 5 5 9 9 6 6 6 5 4 4 6 9 11 14 16 17 19 21 21 21
6 5 7 9 10 12 14 15 14 11 9 8 7 8 11 13 15 14 11 8 8 7 7 9 13 14 13 10 9 7 3 3 1 3 4 3 1 3 6 5 5 12 13 7 4 4 3 2 2 3 5 8 10 10 13 17 17 16 17 17 18 17 17 16 15 13 14 14 9 8 11 8 3 5 5 4 4 4 7 9 12 14 16 18 19 20 21 21
5 6 8 10 9 9 11 11 10 8 7 7 8 10 11 12 15 17 14 10 9 8 9 12 13 13 11 11 10 6 4 5 5 7 8 7 5 3 1 2 3 6 11 7 4 5 4 2 2 3 4 8 12 12 14 16 15 15 16 18 19 17 16 16 14 13 14 12 7 7 8 4 4 5 3 3 3 4 6 9 11 14 16 18 19 20 21 22
9 7 7 7 6 7 9 9 9 8 7 8 11 12 12 13 17 17 12 5 6 9 11 12 12 10 10 11 9 8 9 11 12 11 10 9 7 5 4 4 6 2 5 6 5 5 4 2 1 2 2 8 13 14 14 14 13 12 12 16 18 17 15 15 14 14 14 9 6 6 4 3 4 3 2 1 2 4 5 8 10 13 15 17 18 20 21 23
Wind_Direction
3 0 360 357 355 354 352 350 342 337 338 343 340 341 344 343 345 343 342 341 338 337 334 333 330 327 326 322 325 333 332 331 331 329 318 293 276 264 264 263 258 250 243 243 240 240 238 235 232 218 211 206 211 211 200 198 195 195 213 230 235 237 235 236 237 238 241 244 246 239 220 223 243 242 237 232 236 248 249 238 239 235 233 249 257 258 262 265
5 0 360 357 356 354 353 349 343 343 344 341 338 341 344 342 342 341 341 338 337 336 332 332 329 327 327 323 327 332 331 330 327 323 302 283 278 254 248 254 257 250 241 237 238 239 232 226 219 209 209 209 207 202 197 194 195 202 217 229 233 238 239 237 241 238 233 240 249 249 242 233 239 243 236 233 241 243 239 231 231 233 225 234 250 253 253 258
5 359 356 354 353 350 349 348 345 345 342 342 342 342 345 343 340 338 339 336 335 334 331 332 329 328 327 324 329 336 336 328 320 301 253 277 267 232 237 249 255 252 244 236 236 235 226 224 216 207 211 216 208 198 200 194 196 211 220 231 235 237 240 240 239 232 229 240 250 255 255 246 237 238 236 234 247 250 242 236 230 232 228 213 230 241 241 251
5 358 353 351 349 345 343 343 341 340 341 342 340 341 341 340 337 335 337 335 334 332 331 330 328 328 326 324 329 341 341 321 300 182 227 303 270 240 240 254 267 267 256 240 234 230 223 222 216 210 215 222 212 204 206 196 194 211 219 235 238 235 240 237 232 226 228 238 246 256 258 251 242 232 232 233 245 252 246 245 238 241 241 203 208 234 238 246
1 356 352 348 345 342 341 340 339 339 341 339 337 338 335 334 333 333 334 332 331 330 330 328 327 328 323 324 330 344 342 316 119 139 254 326 313 275 254 261 285 297 279 247 236 228 218 215 212 212 218 225 212 207 212 204 200 217 224 235 239 238 242 226 217 220 224 231 242 252 254 252 243 226 226 232 240 250 248 251 245 244 250 208 202 234 241 238
355 352 349 346 343 340 339 338 337 335 335 333 330 328 326 330 333 333 330 327 326 324 324 323 325 323 317 322 330 339 330 296 45 219 261 297 304 270 254 259 291 321 308 257 235 219 211 208 206 209 214 223 216 210 213 206 205 224 227 229 236 236 232 216 211 217 218 226 235 243 251 251 237 223 226 231 235 245 251 256 247 232 233 212 202 229 241 237
345 344 341 338 335 333 332 331 329 329 328 325 322 321 321 325 331 332 325 322 320 317 318 318 321 319 313 321 326 313 273 269 289 279 273 287 288 259 248 250 284 321 321 265 229 214 209 203 205 209 210 219 219 215 213 207 208 225 232 224 227 224 220 220 219 215 212 224 232 238 248 241 226 229 231 230 232 238 243 239 223 209 208 211 204 219 242 244
340 338 335 332 329 326 325 324 322 323 323 321 321 321 320 320 325 329 326 322 316 313 313 311 315 314 312 321 324 296 264 269 285 282 277 275 276 265 247 251 272 296 310 268 233 220 214 208 209 208 214 220 217 216 210 207 212 221 232 229 221 215 216 221 219 217 214 221 230 236 242 231 228 242 239 231 230 230 228 213 210 214 211 215 211 216 240 245
342 340 336 331 329 327 325 322 320 321 320 319 319 317 316 316 320 326 328 324 318 314 310 306 306 304 307 312 308 292 270 277 287 280 278 273 269 255 244 256 265 275 288 265 240 227 218 214 212 209 224 229 216 214 204 206 219 218 224 225 214 211 215 217 216 217 217 219 224 232 238 236 234 240 240 233 230 223 216 212 213 216 218 222 220 218 236 247
340 337 333 329 327 329 328 325 324 322 319 317 315 312 312 313 316 321 323 322 316 313 310 304 301 298 299 293 287 275 271 291 294 283 274 260 245 241 256 261 260 265 266 260 247 228 220 220 218 216 236 238 218 215 207 209 224 216 218 220 215 214 216 218 219 216 217 219 222 231 239 240 234 230 235 232 227 220 212 214 216 218 223 226 227 220 228 244
335 333 332 328 326 329 329 328 327 323 320 318 315 313 313 314 317 319 320 317 311 309 310 306 300 294 285 270 256 245 278 297 290 283 265 250 251 271 283 267 258 258 249 251 247 229 225 233 236 216 221 230 216 215 216 215 223 207 208 216 217 221 221 216 219 219 219 221 220 231 246 243 235 230 231 227 217 214 217 223 222 224 228 228 229 218 222 237
335 332 328 323 325 332 330 327 326 323 319 315 313 314 314 315 318 318 315 309 305 305 309 311 301 285 277 264 250 247 275 290 283 279 266 265 274 281 285 271 256 249 240 241 241 235 231 236 237 214 212 222 206 210 218 211 214 208 200 215 215 219 225 214 213 215 217 224 216 224 248 241 232 230 227 220 207 199 209 218 218 223 227 227 227 216 217 228
335 331 326 324 327 331 327 324 322 318 315 312 312 313 315 316 316 311 305 299 299 302 305 307 295 275 265 261 257 261 278 287 284 280 271 268 273 278 279 270 259 246 234 229 232 236 229 228 226 222 230 227 204 192 189 192 201 207 204 223 215 212 224 214 211 212 213 220 208 205 238 237 227 227 225 218 212 206 205 211 213 217 219 221 221 215 214 217
334 330 327 327 328 327 325 323 321 318 314 311 310 313 315 315 310 301 295 293 295 298 296 295 290 267 250 257 268 277 282 284 280 279 277 265 262 266 265 265 262 247 228 221 224 229 226 225 223 228 234 231 222 156 164 186 195 202 202 220 221 219 222 205 204 207 209 210 199 202 238 242 230 226 220 214 213 215 218 220 221 222 220 220 218 216 215 211
332 329 326 327 328 326 324 322 321 319 314 309 309 314 314 310 304 295 291 292 293 291 287 287 277 245 253 265 273 282 287 288 280 277 269 249 242 240 243 259 260 247 224 211 215 222 219 214 213 223 221 225 241 206 197 190 191 201 203 213 217 224 223 195 196 203 207 203 196 206 239 241 240 236 212 205 209 213 218 220 221 223 222 222 220 218 217 208
330 327 324 325 326 324 322 320 319 317 313 309 310 314 312 308 302 293 292 291 286 282 279 279 256 237 261 274 264 273 289 276 261 261 227 229 223 231 268 276 250 240 218 202 203 206 202 202 208 218 215 212 220 206 202 199 197 202 209 216 208 211 218 190 189 201 206 206 200 209 234 239 232 232 207 200 207 211 216 218 218 219 218 221 221 217 215 205
326 324 322 321 321 321 319 317 316 315 314 312 313 314 312 309 301 293 294 285 279 276 262 263 252 237 248 260 259 266 255 207 219 216 224 227 238 268 293 277 238 223 205 192 193 193 193 199 204 212 215 211 207 203 206 206 201 197 205 217 210 207 213 196 184 191 201 210 210 210 225 241 233 221 211 204 206 211 215 219 218 217 216 218 219 216 211 204
321 321 319 313 314 314 313 314 316 316 315 315 316 315 315 316 309 297 291 280 271 257 242 234 215 232 245 240 248 251 196 198 219 232 246 247 263 281 283 262 234 203 189 182 187 190 191 198 200 205 209 209 204 202 207 206 202 197 195 208 212 206 209 206 187 178 191 205 215 212 217 232 234 225 214 206 210 217 216 217 218 216 216 215 216 214 208 208
316 316 317 312 312 312 313 319 320 318 318 318 316 319 326 329 318 291 256 246 236 228 257 223 197 235 283 262 249 247 233 244 252 260 259 254 264 273 266 248 228 204 192 184 184 188 191 196 202 207 204 204 203 204 210 209 210 206 196 199 206 198 203 208 196 180 189 201 212 216 216 224 230 228 222 210 209 219 219 215 215 215 215 214 215 212 209 213
321 320 324 323 322 321 321 323 321 320 319 319 319 325 336 336 316 285 255 264 251 250 266 260 237 254 277 279 273 264 259 263 261 261 257 252 255 253 244 224 215 212 206 197 181 185 195 201 207 210 207 205 203 208 213 215 234 216 197 196 200 199 202 205 205 192 192 208 214 215 222 225 227 230 227 220 209 208 216 215 215 215 214 214 214 211 210 213
328 328 332 329 326 324 323 320 318 321 319 315 316 323 333 333 320 315 316 289 260 256 258 261 261 263 270 272 272 270 270 270 255 249 255 252 242 233 223 206 208 213 210 208 188 183 198 210 214 211 210 208 202 208 214 213 223 211 195 197 200 206 210 197 204 202 193 214 221 212 223 228 227 230 226 224 219 209 209 211 214 216 215 214 215 211 209 206
330 332 333 328 324 322 320 317 319 323 319 312 311 315 317 315 304 306 315 295 277 270 259 260 261 261 267 269 265 261 259 259 249 241 238 229 225 223 210 200 210 214 205 207 194 184 201 218 216 208 207 210 202 203 209 208 208 203 193 203 205 204 208 193 198 206 198 212 226 213 221 229 228 232 228 222 223 218 214 214 215 217 215 214 214 212 207 199
330 330 330 326 322 321 317 317 322 322 315 308 305 304 302 300 296 303 305 292 291 285 262 253 252 255 263 266 255 236 236 245 248 238 214 205 216 222 217 204 211 216 202 202 200 191 202 216 213 206 203 206 202 198 203 203 205 211 203 204 207 196 199 196 192 203 205 208 228 225 225 233 228 231 231 223 223 222 218 218 218 219 218 214 213 212 207 200
328 327 326 324 321 318 315 321 327 321 300 305 304 295 288 295 308 314 305 286 288 291 263 238 241 254 257 254 228 209 222 233 240 233 197 195 208 217 224 219 213 216 206 205 207 205 208 207 202 204 202 200 198 191 197 203 206 215 216 211 210 197 198 204 183 190 201 210 223 229 230 234 226 226 227 217 218 221 217 215 215 217 219 217 216 215 210 204
327 325 324 323 321 317 318 328 335 311 301 308 303 292 282 299 311 317 313 290 278 270 236 220 225 240 230 221 206 202 224 231 229 219 181 191 202 203 216 219 216 217 208 208 211 213 214 201 195 202 199 198 201 194 197 202 203 209 213 215 216 199 195 201 178 174 194 209 207 213 230 231 218 224 224 207 206 212 209 207 209 212 214 216 217 215 212 206
326 325 324 321 320 318 320 330 321 299 313 310 289 283 289 312 321 322 314 287 274 202 180 198 204 212 208 201 191 198 227 226 220 210 189 196 202 204 212 208 213 224 211 208 213 219 212 195 197 202 195 198 205 201 197 198 204 205 197 205 214 197 190 198 193 184 204 217 193 198 224 240 211 216 219 209 202 204 202 202 207 209 209 212 213 211 209 204
328 325 323 320 319 319 315 306 295 298 307 295 268 290 297 314 322 325 304 264 260 137 156 179 200 221 218 193 188 196 223 166 191 207 204 203 200 208 224 202 204 227 214 204 208 214 205 190 191 197 194 201 205 198 193 193 205 203 179 187 199 192 192 199 204 207 221 228 191 192 215 243 227 211 209 206 203 202 200 199 204 206 207 209 209 208 205 202
330 326 324 320 315 311 297 285 288 289 279 271 275 283 291 322 326 317 288 277 293 100 168 165 208 226 219 219 217 227 274 304 252 196 193 202 194 199 223 214 207 210 197 204 205 195 197 190 188 195 198 202 202 195 186 189 207 204 171 181 192 193 196 198 206 217 221 225 213 197 205 232 234 205 190 196 202 205 199 196 200 202 205 206 206 206 204 203
334 329 325 319 314 311 297 279 272 261 256 263 265 281 302 320 321 287 249 276 345 68 231 188 222 235 228 244 238 236 257 266 244 163 157 194 199 205 230 224 217 206 192 210 214 181 189 195 193 200 203 200 198 195 182 188 203 184 164 176 185 193 198 201 213 217 213 224 228 207 198 214 233 211 190 190 203 208 197 191 198 200 202 204 204 204 204 203
337 330 324 320 319 318 312 298 266 241 232 242 240 293 309 296 276 256 250 272 346 345 5 200 239 248 225 250 260 239 236 237 233 215 174 187 199 217 238 219 216 212 190 207 217 183 179 195 198 205 206 199 196 193 183 190 192 157 164 176 175 187 196 203 222 223 218 225 227 217 204 207 229 221 204 197 201 206 198 191 195 197 200 203 202 202 203 202
338 333 330 331 335 335 342 348 294 246 217 229 231 286 291 266 224 256 265 254 294 299 316 269 277 268 241 262 283 244 223 226 221 209 193 186 191 205 218 201 202 209 187 195 208 188 179 191 194 202 205 200 195 188 182 191 189 167 177 180 167 179 191 196 208 215 227 228 217 215 210 209 223 224 207 197 192 198 200 196 191 191 197 199 199 202 203 202
342 342 348 358 8 10 17 3 309 301 229 214 220 281 284 267 230 249 275 285 283 316 346 291 298 294 279 282 279 244 233 225 203 200 197 188 188 198 209 197 181 188 187 181 186 185 188 190 184 191 200 200 192 182 179 188 190 185 187 182 174 175 178 195 202 203 219 228 209 204 203 210 227 231 224 201 189 194 199 199 194 191 192 193 195 199 200 200
348 356 14 27 24 15 12 355 336 336 325 257 264 274 273 273 277 288 305 303 283 354 312 297 300 302 292 286 275 237 230 210 186 195 199 191 192 201 211 211 197 197 193 174 174 176 181 187 186 187 192 196 195 184 178 182 187 192 188 183 183 177 177 195 199 200 212 209 190 195 200 216 234 230 225 218 199 195 197 201 199 194 193 190 191 195 197 197
351 11 24 24 9 2 1 355 345 323 314 289 279 279 259 265 300 323 312 308 307 293 293 299 303 302 291 276 273 215 215 202 178 185 195 192 195 200 207 211 209 214 191 168 173 176 174 177 187 189 183 189 200 197 181 176 184 194 192 190 196 187 184 197 195 198 203 189 176 180 196 218 219 204 206 208 206 200 200 202 199 194 194 192 191 193 193 192
342 2 9 356 344 348 346 332 307 292 292 274 279 281 265 280 311 328 322 314 313 300 295 300 298 293 288 250 230 216 228 209 183 186 196 194 195 199 200 201 203 211 186 167 171 178 182 176 179 190 188 186 197 199 184 180 183 191 194 198 205 201 189 188 201 210 195 182 177 182 200 215 185 116 149 195 205 200 195 196 193 188 186 184 185 187 187 189
332 223 6 6 347 330 325 318 295 269 262 270 285 281 280 299 303 314 329 315 308 308 304 304 295 280 309 14 187 184 102 170 188 189 199 200 203 199 199 199 194 200 192 174 167 173 183 164 165 184 194 188 194 197 188 189 183 180 197 200 199 212 211 187 117 49 155 194 185 186 207 216 209 189 173 182 198 198 191 190 194 194 186 180 180 182 185 188
332 223 311 6 353 332 325 320 297 256 253 260 279 292 297 299 289 295 294 292 302 305 302 308 317 326 333 349 158 164 160 195 192 195 196 194 203 196 197 199 190 197 203 189 178 180 179 141 157 181 188 183 194 197 191 202 202 181 192 192 178 205 242 206 184 153 181 209 190 180 204 211 216 205 171 177 193 196 194 195 196 195 192 192 191 190 190 187
339 254 273 344 344 344 343 323 273 247 257 259 275 290 298 295 292 291 285 293 303 301 282 293 314 352 327 332 17 156 178 194 185 197 201 186 189 187 191 194 189 200 209 203 199 190 183 144 155 183 183 174 190 197 189 204 213 204 194 186 177 189 201 196 196 183 190 210 209 198 207 210 210 198 168 180 193 194 195 198 199 198 194 196 197 194 187 181
334 288 247 331 333 342 352 327 254 254 257 274 299 308 315 305 297 293 292 298 301 271 266 282 265 247 283 318 331 174 183 203 191 190 197 190 180 181 187 191 191 200 205 205 204 192 192 171 154 179 181 170 184 197 189 192 203 208 203 194 200 211 199 194 204 199 192 203 212 206 205 208 213 210 192 185 188 193 196 197 200 201 198 199 198 187 177 174
332 306 210 331 329 339 355 323 256 258 258 283 307 310 313 310 302 299 302 307 295 251 264 283 268 262 254 289 296 248 191 226 219 192 189 191 173 176 188 193 191 194 196 203 208 191 195 191 157 169 175 174 184 197 195 187 186 198 201 191 194 203 203 199 202 216 213 204 203 208 216 211 197 203 212 209 200 193 192 195 200 203 203 201 196 180 170 170
336 328 286 331 334 342 340 297 253 270 284 298 310 307 308 311 302 300 308 316 293 253 261 279 279 279 281 274 273 238 207 227 221 200 192 192 181 177 189 193 192 186 184 196 207 194 194 184 163 165 173 182 187 191 198 193 185 194 200 189 190 191 192 192 189 205 227 223 205 210 224 205 135 163 211 214 211 197 191 197 201 198 193 187 177 170 166 165
328 332 306 329 341 348 287 277 279 298 289 309 319 310 307 307 292 298 314 323 307 273 256 263 267 272 274 264 258 248 240 229 210 201 181 187 197 185 182 189 191 183 178 190 193 186 207 194 167 165 174 183 178 183 201 200 188 196 207 197 195 194 197 199 182 183 204 222 230 213 216 152 78 55 229 190 178 173 181 192 189 176 170 164 159 161 162 163
325 325 299 320 337 335 267 280 324 325 301 313 317 313 311 301 280 300 319 324 317 309 288 278 271 248 256 258 260 253 249 238 218 210 154 171 200 182 175 185 190 184 180 187 180 174 207 207 166 157 162 169 166 175 198 203 191 197 209 203 200 196 199 213 202 172 188 196 184 190 197 134 74 67 94 108 125 138 152 171 168 160 159 161 159 159 160 161
324 313 298 327 336 312 284 315 329 327 324 322 322 326 331 321 305 310 319 320 316 316 314 309 304 234 231 252 264 276 282 261 209 208 205 180 193 175 175 183 188 187 182 180 172 171 197 188 160 152 154 155 160 170 189 204 199 197 203 201 200 196 196 212 219 193 194 193 192 203 173 120 93 118 129 126 153 158 152 160 164 159 158 161 160 158 160 160
327 312 308 344 339 277 294 336 332 318 324 326 326 333 340 338 332 330 321 310 310 326 322 303 295 293 268 247 253 279 299 296 206 202 248 246 194 181 182 186 187 188 185 185 181 177 196 189 164 160 159 160 174 180 182 192 195 196 198 196 197 198 196 199 205 200 195 185 203 230 162 107 115 127 113 113 142 150 147 156 162 159 158 159 158 157 159 162
340 342 341 346 340 281 281 310 330 324 324 328 327 331 340 339 335 339 333 312 326 342 326 297 298 313 323 309 284 246 269 288 297 271 268 245 202 181 182 189 192 194 191 201 218 206 199 201 185 180 181 176 178 184 184 183 185 192 194 192 195 200 199 199 204 204 193 175 202 231 259 82 111 91 80 98 131 140 147 156 160 158 158 160 159 158 161 165
340 354 353 342 332 311 307 324 346 338 321 322 321 317 329 332 332 340 345 321 327 331 318 286 306 334 347 338 322 312 157 188 227 315 297 265 226 195 182 191 199 204 205 209 219 221 215 199 191 199 209 193 163 159 174 181 186 190 191 192 194 198 200 202 208 209 201 196 193 191 348 326 332 18 38 81 121 143 154 160 162 159 160 162 161 160 164 167
359 358 356 345 318 312 322 324 328 322 313 316 313 300 319 330 332 336 338 307 308 318 313 287 316 339 342 328 318 315 301 169 157 302 296 264 229 191 174 183 200 206 211 212 205 219 258 199 180 195 210 201 173 165 170 176 182 185 188 191 192 196 202 204 210 221 223 219 166 53 19 332 333 0 18 59 96 143 157 162 166 162 162 164 162 163 166 167
14 344 326 336 308 293 297 301 304 307 312 321 320 318 326 326 326 331 332 307 303 309 311 307 320 334 332 319 315 313 314 336 141 316 335 342 242 184 168 172 197 202 206 214 202 212 269 186 165 204 210 203 203 185 173 174 177 180 186 190 190 196 203 204 212 230 244 251 268 349 335 319 339 6 23 60 87 131 150 161 167 166 166 166 164 165 167 167
13 352 327 318 306 296 298 302 304 306 317 331 333 335 331 320 322 333 327 304 295 304 321 320 317 322 321 313 305 298 321 24 3 305 334 342 300 184 160 152 196 194 193 211 204 192 227 182 165 243 217 189 192 188 177 177 180 181 185 188 190 194 199 204 212 225 240 250 264 296 302 307 17 45 46 71 105 138 151 162 166 167 168 166 165 166 165 164
357 338 323 314 308 311 316 318 318 314 326 347 344 336 329 317 320 328 321 293 267 268 301 314 312 314 312 304 303 312 2 6 305 287 297 293 303 337 22 18 335 194 180 192 208 191 206 220 212 249 213 170 177 186 179 176 181 187 189 189 190 192 196 201 207 218 233 244 253 265 276 296 55 56 57 96 136 153 156 162 165 165 166 166 166 166 164 163
349 333 331 323 297 303 321 323 322 327 341 350 340 329 321 312 316 325 323 299 258 256 271 288 296 304 305 301 312 331 331 315 295 285 282 272 280 311 311 326 333 308 168 179 207 206 220 257 275 261 199 156 169 184 178 171 182 194 193 191 190 190 194 198 206 219 230 239 242 244 262 23 50 41 50 119 168 170 163 167 168 164 164 167 167 165 165 164